Weather History for Thomson, GA

Change the Weather History Date:

Friday, November 11, 2011

  Actual Average (KDBN) Record (KDBN)
Temperature  
Mean Temperature 46 °F -  
Max Temperature 59 °F 70 °F 83 °F (1935)
Min Temperature 32 °F 42 °F 27 °F (1977)
Degree Days  
Heating Degree Days 20    
Moisture  
Dew Point 26 °F    
Average Humidity 54    
Maximum Humidity 87    
Minimum Humidity 20    
Precipitation  
Precipitation 0.00 in - - ()
Sea Level Pressure  
Sea Level Pressure 30.19 in    
Wind  
Wind Speed 5 mph (WNW)    
Max Wind Speed 12 mph    
Max Gust Speed 16 mph    
Visibility 10 miles    
Events      
Averages and records for this station are not official NWS values.
T = Trace of Precipitation, MM = Missing Value Source: NWS Daily Summary

Daily Weather History Graph

Daily Weather History Graph

Search for Another Location

Airport:

Trip Planner

Search our weather history database for the weather conditions in past years. The results will help you decide how hot, cold, wet, or windy it might be!

Date:

Astronomy

Nov. 11, 2011 Rise Set
Actual Time 6:57 AM EST 5:30 PM EST
Civil Twilight 6:31 AM EST 5:56 PM EST
Nautical Twilight 6:01 AM EST 6:26 PM EST
Astronomical Twilight 5:32 AM EST 6:55 PM EST
Moon 6:02 PM EST (11/11) 7:40 AM EST (11/11)
Length of Visible Light 11h 24m
Length of Day
10h 32m
Full, 99% of the Moon is Illuminated
Nov 11
Full
Nov 18
Last Quarter
Nov 25
New
Dec 2
First Quarter
Dec 10
Full

Hourly Weather History & Observations

Time (EST) Temp. Windchill Dew Point Humidity Pressure Visibility Wind Dir Wind Speed Gust Speed Precip Events Conditions
12:15 AM 42.8 °F 41.1 °F 30.2 °F 61% 30.09 in 10.0 mi West 3.5 mph - N/A   Clear
12:35 AM 42.8 °F 39.3 °F 30.2 °F 61% 30.09 in 10.0 mi West 5.8 mph - N/A   Clear
12:55 AM 42.8 °F 38.6 °F 30.2 °F 61% 30.09 in 10.0 mi WNW 6.9 mph - N/A   Clear
1:15 AM 42.8 °F 38.6 °F 30.2 °F 61% 30.10 in 10.0 mi West 6.9 mph - N/A   Clear
1:35 AM 42.8 °F 38.0 °F 30.2 °F 61% 30.10 in 10.0 mi WNW 8.1 mph - N/A   Clear
1:55 AM 41.0 °F 38.0 °F 30.2 °F 65% 30.11 in 10.0 mi WNW 4.6 mph - N/A   Clear
2:15 AM 41.0 °F 35.8 °F 30.2 °F 65% 30.11 in 10.0 mi WNW 8.1 mph - N/A   Clear
2:35 AM 41.0 °F 36.4 °F 30.2 °F 65% 30.11 in 10.0 mi NW 6.9 mph - N/A   Clear
3:15 AM 39.2 °F 35.9 °F 28.4 °F 65% 30.12 in 10.0 mi WNW 4.6 mph - N/A   Clear
3:35 AM 37.4 °F 33.8 °F 30.2 °F 75% 30.13 in 10.0 mi WNW 4.6 mph - N/A   Clear
3:55 AM 37.4 °F 33.8 °F 28.4 °F 70% 30.13 in 10.0 mi WNW 4.6 mph - N/A   Clear
4:15 AM 35.6 °F 30.7 °F 30.2 °F 81% 30.13 in 10.0 mi WNW 5.8 mph - N/A   Clear
4:35 AM 35.6 °F 32.8 °F 28.4 °F 75% 30.14 in 10.0 mi NW 3.5 mph - N/A   Clear
4:55 AM 33.8 °F - 28.4 °F 81% 30.15 in 10.0 mi Calm Calm - N/A   Clear
5:15 AM 33.8 °F 29.6 °F 28.4 °F 81% 30.15 in 10.0 mi WNW 4.6 mph - N/A   Clear
5:35 AM 33.8 °F - 28.4 °F 81% 30.16 in 10.0 mi Calm Calm - N/A   Clear
5:55 AM 32.0 °F - 28.4 °F 87% 30.16 in 10.0 mi Calm Calm - N/A   Clear
6:15 AM 32.0 °F 28.7 °F 28.4 °F 87% 30.18 in 10.0 mi West 3.5 mph - N/A   Clear
6:35 AM 32.0 °F - 28.4 °F 87% 30.19 in 10.0 mi Calm Calm - N/A   Clear
6:55 AM 32.0 °F - 28.4 °F 87% 30.19 in 10.0 mi Calm Calm - N/A   Clear
7:35 AM 32.0 °F - 28.4 °F 87% 30.21 in 10.0 mi Calm Calm - N/A   Clear
7:55 AM 35.6 °F - 30.2 °F 81% 30.21 in 10.0 mi Calm Calm - N/A   Clear
8:35 AM 41.0 °F 37.1 °F 28.4 °F 61% 30.22 in 10.0 mi West 5.8 mph - N/A   Clear
8:55 AM 42.8 °F 38.6 °F 24.8 °F 49% 30.23 in 10.0 mi WNW 6.9 mph - N/A   Clear
9:15 AM 46.4 °F 41.9 °F 23.0 °F 40% 30.23 in 10.0 mi West 9.2 mph - N/A   Clear
9:35 AM 48.2 °F - 23.0 °F 37% 30.23 in 10.0 mi West 10.4 mph - N/A   Clear
9:55 AM 50.0 °F - 21.2 °F 32% 30.24 in 10.0 mi WNW 11.5 mph - N/A   Clear
10:15 AM 50.0 °F - 19.4 °F 30% 30.24 in 10.0 mi WNW 10.4 mph - N/A   Clear
10:35 AM 51.8 °F - 21.2 °F 30% 30.24 in 10.0 mi WNW 10.4 mph - N/A   Clear
10:55 AM 51.8 °F - 19.4 °F 28% 30.24 in 10.0 mi NW 8.1 mph - N/A   Clear
11:15 AM 53.6 °F - 19.4 °F 26% 30.24 in 10.0 mi WNW 9.2 mph - N/A   Clear
11:35 AM 53.6 °F - 19.4 °F 26% 30.23 in 10.0 mi West 6.9 mph - N/A   Clear
11:55 AM 53.6 °F - 19.4 °F 26% 30.22 in 10.0 mi West 9.2 mph - N/A   Clear
12:15 PM 55.4 °F - 17.6 °F 23% 30.22 in 10.0 mi NW 8.1 mph - N/A   Clear
12:35 PM 55.4 °F - 17.6 °F 23% 30.21 in 10.0 mi West 8.1 mph - N/A   Clear
12:55 PM 55.4 °F - 17.6 °F 23% 30.21 in 10.0 mi West 11.5 mph 16.1 mph N/A   Clear
1:15 PM 57.2 °F - 17.6 °F 21% 30.20 in 10.0 mi West 6.9 mph - N/A   Clear
1:35 PM 59.0 °F - 17.6 °F 20% 30.19 in 10.0 mi WNW 10.4 mph - N/A   Clear
1:55 PM 59.0 °F - 17.6 °F 20% 30.19 in 10.0 mi WNW 9.2 mph - N/A   Clear
2:15 PM 59.0 °F - 17.6 °F 20% 30.19 in 10.0 mi West 6.9 mph - N/A   Clear
2:35 PM 59.0 °F - 17.6 °F 20% 30.19 in 10.0 mi WNW 9.2 mph - N/A   Clear
2:55 PM 59.0 °F - 17.6 °F 20% 30.19 in 10.0 mi West 8.1 mph - N/A   Clear
3:15 PM 59.0 °F - 17.6 °F 20% 30.19 in 10.0 mi West 5.8 mph - N/A   Clear
3:35 PM 59.0 °F - 17.6 °F 20% 30.19 in 10.0 mi NW 8.1 mph - N/A   Clear
4:15 PM 59.0 °F - 17.6 °F 20% 30.20 in 10.0 mi NW 5.8 mph - N/A   Clear
4:35 PM 57.2 °F - 17.6 °F 21% 30.20 in 10.0 mi WNW 6.9 mph - N/A   Clear
4:55 PM 55.4 °F - 19.4 °F 25% 30.20 in 10.0 mi West 3.5 mph - N/A   Clear
5:35 PM 50.0 °F - 26.6 °F 40% 30.21 in 10.0 mi Calm Calm - N/A   Clear
5:55 PM 48.2 °F - 30.2 °F 50% 30.21 in 10.0 mi Calm Calm - N/A   Clear
6:35 PM 42.8 °F - 32.0 °F 66% 30.23 in 10.0 mi Calm Calm - N/A   Clear
6:55 PM 41.0 °F - 32.0 °F 70% 30.23 in 10.0 mi Calm Calm - N/A   Clear
7:15 PM 41.0 °F - 32.0 °F 70% 30.24 in 10.0 mi Calm Calm - N/A   Clear
7:35 PM 39.2 °F - 32.0 °F 75% 30.23 in 10.0 mi Calm Calm - N/A   Clear
7:55 PM 37.4 °F - 32.0 °F 81% 30.24 in 10.0 mi Calm Calm - N/A   Clear
8:15 PM 37.4 °F - 32.0 °F 81% 30.24 in 10.0 mi Calm Calm - N/A   Clear
8:35 PM 37.4 °F - 32.0 °F 81% 30.24 in 10.0 mi Calm Calm - N/A   Clear
8:55 PM 37.4 °F - 32.0 °F 81% 30.24 in 10.0 mi Calm Calm - N/A   Clear
9:15 PM 35.6 °F - 32.0 °F 87% 30.25 in 10.0 mi Calm Calm - N/A   Clear
9:35 PM 35.6 °F - 32.0 °F 87% 30.26 in 10.0 mi Calm Calm - N/A   Clear
9:55 PM 35.6 °F - 32.0 °F 87% 30.26 in 10.0 mi Calm Calm - N/A   Clear
10:15 PM 35.6 °F - 32.0 °F 87% 30.26 in 10.0 mi Calm Calm - N/A   Clear
10:35 PM 33.8 °F - 32.0 °F 93% 30.26 in 10.0 mi Calm Calm - N/A   Clear
10:55 PM 33.8 °F - 30.2 °F 87% 30.26 in 10.0 mi Calm Calm - N/A   Clear
11:15 PM 33.8 °F - 32.0 °F 93% 30.27 in 10.0 mi Calm Calm - N/A   Clear
11:35 PM 32.0 °F - 30.2 °F 93% 30.27 in 10.0 mi Calm Calm - N/A   Clear
11:55 PM 32.0 °F - 30.2 °F 93% 30.27 in 10.0 mi Calm Calm - N/A   Clear